STARLINK-35344

Last updated on Mon Oct 20 2025 00:02:05 GMT+0000 (Coordinated Universal Time)

1 65656U 25211E 25292.25002315 -.02405603 00000+0 -62317-1 0 9998 2 65656 97.6034 334.4083 0001673 83.9685 282.2330 15.42572727 5726

Satellite not in orbit

STARLINK-35344